Theta_e
305 307 311 307 306 309 302 304 303 307 311 315 321 321 323 323 325 328 330 333 334 337 340 341 341 344 345 346 346 346 347 349
305 307 306 309 312 302 304 296 295 302 306 307 314 320 322 323 325 329 331 333 335 337 339 342 342 344 346 347 346 346 347 348
305 305 305 304 304 304 304 303 297 297 302 316 319 322 323 325 328 330 332 334 336 337 339 342 344 344 346 347 346 347 348 348
303 307 308 308 306 306 300 300 303 303 303 315 320 321 326 326 328 331 334 335 336 338 340 341 342 344 345 347 346 348 350 350
302 303 304 303 305 307 306 306 304 300 302 315 319 321 323 327 329 330 332 335 336 338 339 341 342 344 345 348 347 348 349 350
300 304 305 304 306 304 306 302 304 304 306 313 317 320 323 326 330 331 332 334 336 337 339 341 342 344 345 347 350 349 348 348
304 305 303 303 305 305 304 308 304 306 308 313 319 321 324 327 329 330 331 334 336 338 339 340 341 343 345 347 348 349 348 347
304 307 305 302 305 307 307 308 309 309 310 318 319 322 325 328 328 330 332 334 336 339 339 339 340 342 343 345 347 347 345 345
302 307 306 301 306 308 309 311 311 307 314 318 320 322 325 329 331 332 334 336 338 339 340 341 341 342 342 344 345 344 345 345
302 305 296 306 311 312 311 312 313 314 316 319 322 325 329 332 332 334 337 338 340 341 343 345 345 345 345 344 344 343 343 343
299 300 304 307 310 310 309 310 315 314 315 317 319 322 326 331 335 337 339 340 342 343 346 345 346 347 347 347 346 346 346 346
301 297 296 307 311 315 314 305 314 316 316 318 319 313 319 326 333 336 339 341 342 343 344 345 346 347 345 344 345 345 347 349
300 298 303 311 314 316 303 306 316 318 318 320 318 322 327 327 328 335 339 340 343 343 342 344 345 345 343 344 344 347 348 346
301 297 296 313 314 308 314 318 318 319 320 320 323 325 326 328 329 331 337 339 342 341 342 343 345 344 342 342 344 348 347 345
305 304 312 313 314 318 319 319 320 320 322 322 321 323 326 328 330 332 336 340 341 341 341 343 345 344 342 343 345 345 345 343
305 308 311 312 316 318 320 320 320 321 322 326 323 326 327 329 331 333 337 340 341 341 340 340 343 344 342 343 344 343 341 341
305 309 311 314 316 319 321 321 321 321 322 325 327 327 329 330 333 336 339 341 342 341 339 338 341 340 340 341 340 338 339 337
302 311 307 307 312 316 316 318 321 320 321 325 328 328 330 331 336 338 337 338 338 338 338 336 338 337 339 339 339 337 337 331
312 316 313 311 312 316 317 318 321 322 323 322 328 329 330 332 334 330 335 336 334 334 334 334 336 336 337 337 338 338 336 332
Wind_Speed
7 5 10 7 9 2 3 1 4 2 6 9 4 1 2 3 6 11 15 17 18 18 17 16 16 17 17 15 13 14 15 12
2 5 5 6 10 5 4 5 7 4 6 8 2 5 3 4 7 10 12 14 14 14 15 14 15 15 15 15 16 15 13 13
2 8 10 6 5 2 2 5 7 6 5 5 7 6 9 8 7 9 12 14 13 12 11 12 12 13 14 13 11 12 13 12
16 5 3 3 6 7 6 5 1 3 5 3 6 5 8 10 10 9 10 10 11 11 11 12 13 13 14 12 13 13 11 12
6 5 5 8 9 10 6 2 8 7 5 2 5 6 9 11 12 11 11 11 9 9 11 11 11 12 12 12 12 11 10 10
12 13 1 5 7 12 15 7 7 10 11 7 8 9 8 11 10 11 11 11 10 8 8 9 9 10 10 10 8 9 10 10
15 16 9 12 13 12 16 14 11 13 12 11 9 10 12 9 9 10 12 12 11 10 9 9 9 9 9 8 8 8 8 9
7 13 13 14 13 13 18 8 9 7 11 9 2 3 8 10 12 13 12 12 11 10 11 10 11 10 10 9 9 9 8 8
11 8 9 11 14 15 11 10 13 10 14 9 7 10 13 12 13 15 15 14 14 13 11 10 10 10 10 9 8 9 9 9
8 6 17 10 4 11 17 10 13 8 8 12 9 5 7 10 14 14 14 14 13 11 10 9 8 9 9 8 8 8 8 8
8 11 9 11 3 4 9 13 13 13 7 6 1 2 9 13 12 14 18 14 11 11 11 10 10 9 10 9 9 8 8 8
5 10 18 13 9 10 7 10 1 10 10 8 5 6 9 4 11 12 10 11 15 14 11 12 11 12 11 10 9 8 7 6
13 10 7 8 15 8 9 5 14 8 7 7 8 6 6 7 6 15 16 14 13 17 13 12 12 12 12 10 8 6 7 7
3 5 11 14 4 1 8 12 11 12 8 3 7 12 12 12 12 13 20 19 17 16 14 12 12 11 11 9 8 7 8 8
5 3 6 6 6 11 10 10 8 12 14 13 13 12 14 10 7 10 17 16 17 16 16 13 12 10 11 9 8 8 7 6
4 0 8 15 15 9 8 10 11 9 14 12 14 15 16 10 6 9 12 15 16 17 17 14 11 10 10 10 8 8 7 6
7 10 11 1 8 12 11 11 11 9 12 12 11 13 10 4 4 6 9 12 13 14 13 13 10 8 9 9 8 6 6 5
10 3 5 8 16 19 17 16 13 11 10 10 8 8 5 4 6 10 11 12 14 13 13 11 10 9 9 7 7 7 6 5
10 9 9 9 21 23 22 19 12 9 9 8 7 5 3 6 8 11 15 16 13 14 14 10 8 8 8 8 7 6 5 5
Wind_Direction
222 197 189 160 210 307 186 81 252 305 271 261 260 353 274 158 179 195 202 191 196 199 201 200 201 203 203 201 211 206 205 208
66 175 122 223 139 178 216 216 252 220 275 287 330 157 171 200 188 185 190 196 197 199 201 202 202 203 204 203 206 210 209 207
243 218 222 163 209 194 265 283 260 260 252 218 252 209 182 197 201 188 191 196 199 200 205 202 196 198 202 204 208 204 207 210
254 222 204 223 217 212 248 217 260 310 263 204 245 237 214 186 190 192 206 202 200 197 190 194 193 192 199 199 201 210 209 209
262 179 162 217 196 213 222 234 209 226 253 162 252 216 220 211 188 187 192 196 193 185 194 195 195 195 200 196 203 205 209 212
258 277 98 235 215 204 209 213 215 229 236 219 224 232 213 232 206 186 180 184 179 183 190 190 193 192 198 193 193 192 203 212
247 259 250 262 261 211 209 224 213 249 214 231 229 215 215 214 220 187 179 179 181 172 179 180 179 181 184 189 187 192 196 203
264 262 259 250 255 238 232 245 241 237 228 228 192 240 207 205 199 197 193 185 179 173 170 176 175 173 172 179 180 181 186 193
260 282 296 255 243 230 223 215 213 193 222 168 197 209 217 203 196 194 187 181 178 176 169 170 174 170 174 172 171 176 187 192
273 284 248 276 326 273 218 215 217 260 220 195 213 221 230 228 206 195 180 184 177 167 159 151 145 142 134 141 149 165 173 182
245 246 284 282 215 235 214 237 223 223 260 232 209 194 244 218 224 211 183 179 176 157 152 147 146 139 136 140 144 157 155 164
223 248 247 254 15 353 296 248 27 221 199 186 169 210 231 140 201 212 219 179 162 152 156 151 146 146 139 137 144 145 143 135
232 247 251 10 326 314 235 315 334 307 205 165 202 238 337 332 273 222 197 177 170 152 160 153 158 151 139 143 145 129 129 134
234 245 242 9 341 298 344 312 340 330 329 291 269 294 298 293 280 225 201 173 172 157 155 154 157 156 142 144 142 141 142 140
263 341 345 328 295 300 316 288 328 327 318 315 293 283 284 286 267 215 200 179 163 161 149 152 161 161 144 140 150 152 160 150
293 251 310 309 306 287 280 295 314 312 318 308 292 295 290 300 250 207 196 178 162 156 149 148 164 164 141 146 152 157 156 154
261 284 322 2 322 326 299 291 298 310 309 322 300 289 299 319 215 193 180 158 154 145 141 140 149 153 141 148 151 148 145 143
263 242 189 250 283 293 300 296 304 306 299 324 301 301 295 126 150 151 144 145 139 126 127 134 145 154 149 154 164 152 139 145
252 203 194 239 273 275 275 275 269 285 287 300 300 289 219 158 153 140 141 139 140 145 129 127 145 164 155 154 178 165 147 151